Regional Weather Roundup
Issued by NWS

Home | Current Version | Previous Version | Graphics & Text | Print | Product List | Glossary Off
Versions: 1 2 3 4 5 6 7 8 9 10 11 12 13 14 15 16 17 18 19 20 21 22 23 24 25 26 27 28 29 30 31 32 33 34 35 36 37 38 39 40 41 42 43 44 45 46 47 48 49 50

275
ASUS43 KLSX 260310
RWRMO

WEATHER SUMMARY FOR MISSOURI
NATIONAL WEATHER SERVICE SPRINGFIELD MO
1000 PM CDT SUN SEP 25 2016

NOTE: "FAIR" INDICATES FEW OR NO CLOUDS BELOW 12,000 FEET WITH NO
       SIGNIFICANT WEATHER AND/OR OBSTRUCTIONS TO VISIBILITY.
       CURRENT SKY AND/OR WEATHER CONDITIONS ARE NOT AVAILABLE FOR
       CHILLICOTHE AND FARMINGTON.

MOZ001>031-035>038-043-044-053-054-260400-
...NORTHERN AND WESTERN MISSOURI...

CITY           SKY/WX    TMP DP  RH WIND       PRES   REMARKS
KANSAS CTY INT CLOUDY    61  55  81 W5        30.19R
KANSAS C DTWN  CLOUDY    65  56  72 SW5       30.19R
LEE`S SUMMIT   PTCLDY    62  58  86 SW3       30.20R
ST JOSEPH      PTCLDY    60  57  89 CALM      30.19R
CHILLICOTHE      N/A     62  55  77 CALM      30.19R
KIRKSVILLE     PTCLDY    62  52  69 NW8       30.16R

$$
MOZ066>068-077>081-088>096-101>105-260400-
...SOUTHWEST MISSOURI...

CITY           SKY/WX    TMP DP  RH WIND       PRES   REMARKS
SPRINGFIELD    LGT RAIN  65  61  87 N14       30.16R
JOPLIN         CLOUDY    61  58  90 N7          N/A
BRANSON        CLOUDY    68  63  83 NW12G22   30.16R

$$
MOZ032>034-039>042-045>050-055>058-069>072-260400-
...CENTRAL MISSOURI...

CITY           SKY/WX    TMP DP  RH WIND       PRES   REMARKS
COLUMBIA       LGT RAIN  64  56  75 NW12      30.16R
JEFFERSON CITY CLOUDY    66  55  67 NW9       30.14R
ROLLA          LGT RAIN  65  59  81 NW18G24   30.13R
SEDALIA        CLOUDY    64  57  78 W5        30.19R
WHITEMAN AFB   CLOUDY    62  62  98 NW5       30.18R
OSAGE BEACH    LGT RAIN  63  57  81 NW7       30.17S

$$
MOZ051-052-059>065-260400-
...EAST CENTRAL MISSOURI...

CITY           SKY/WX    TMP DP  RH WIND       PRES   REMARKS
ST LOUIS INTL  MOCLDY    77  65  66 NW9       30.04S
SPIRIT OF STL  CLOUDY    75  67  76 W7        30.06R
ST CHARLES     PTCLDY    75  67  76 NW14      30.03R

$$
MOZ072>076-082>087-097>100-106>115-260400-
...SOUTH CENTRAL AND SOUTHEAST MISSOURI...

CITY           SKY/WX    TMP DP  RH WIND       PRES   REMARKS
CAPE GIRARDEAU PTCLDY    74  71  91 CALM      30.01S
FARMINGTON     MOCLDY    74  69  85 NW7       30.07R
WEST PLAINS    PTCLDY    73  66  78 N9        30.12R

$$




USA.gov is the U.S. government's official web portal to all federal, state and local government web resources and services.